www.pogodaiklimat.ru

Погода и климат >> Архив погоды >> Россия >> Сахалинская область >> Оха


ПОГОДА в Оха

  • Прогноз погоды в Оха
  • Монитор погоды в Оха
  • Климат города

АРХИВ ПОГОДЫ в Оха

Время (UTC), дата Ветер
(напр.,м/с)
 
Видим.   Явления Облачность Т
(С)
Тd
(С)
f
(%)
Тe
(С)
Тes
(С)
Комфортность P
(гПа)
Po
(гПа)
Тmin
(С)
Tmax
(С)
R
(мм)
R24
(мм)
S
(см)
06 23.04 СЗ 2-3
{5}
20 км 3/0
[Ci fib]
+3.3 -3.2 62 +1 +7 1020.4 1015.6
09 23.04 СВ 2-3
{4}
20 км 3/0
[Ci fib]
+0.8 -3.3 74 -2 -2 1021.3 1016.5 +5.2 0.0
12 23.04 СВ 2-3
{3}
20 км 3/0
[Ac trans]
-3.6 -4.2 96 -8 -8 1022.9 1018.0
18 23.04 СВ 1-2
{2}
4000 м дымка {туман} 10/10 120 м
[St]
-4.5 -4.5 100 -7 -7 1024.1 1019.2
21 23.04 СВ 1-2
{2}
2000 м в посл. час туман 10/10 90 м
[St]
-3.9 -3.9 100 -6 -6 1024.8 1019.8 -5.0 71
00 24.04 С 1-3
{3}
20 км {туман} 10/10 180 м
[St]
-1.7 -3.1 90 -4 -4 1024.9 1020.0
06 24.04 В 3-5
{5}
20 км 6/3 300 м
[St Ci sp]
0.0 -3.5 77 -5 -1 1024.0 1019.1
09 24.04 В 2-3
{5}
20 км 8/5 120 м
[St Ci sp]
-3.0 -4.3 91 -7 -7 1024.1 1019.2 +0.6
12 24.04 В 2-3
{4}
500 м переохл. туман ?/? -4.5 -4.6 99 -9 -9 1024.9 1020.0
18 24.04 штиль 0
{1}
500 м переохл. туман ?/? -7.8 -8.2 97 -9 -9 1024.3 1019.3
21 24.04 штиль 0
{1}
20 км местами туман поземный 8/0
[Ci sp]
-7.1 -7.5 97 -8 -6 1024.3 1019.3 -9.5 68
00 25.04 СВ 2-3
{3}
20 км {туман} 8/0
[Ci sp]
+1.3 -1.6 81 -2 +6 1023.5 1018.7
06 25.04 ЮВ 4-5
{5}
20 км 6/1 200 м
[St Ci fib]
+3.2 -3.7 61 -1 +3 1020.8 1016.0
09 25.04 В 3-5
{5}
20 км 8/3 200 м
[St Ci sp]
-1.9 -4.8 81 -7 -7 1019.8 1014.9 +5.0
12 25.04 ЮВ 3-5
{6}
20 км 10/10 120 м
[St]
-5.0 -5.1 99 -11 -11 1018.9 1014.0
18 25.04 ЮВ 4-6
{6}
20 км 10/10 120 м
[St]
-5.0 -5.1 99 -12 -12 1015.5 1010.6
21 25.04 ЮВ 4-7
{7}
4000 м дымка 10/10 90 м
[St]
-3.7 -3.7 100 -10 -10 1013.7 1008.8 -5.6 64
00 26.04 В 4-6
{7}
4000 м дымка 10/10 150 м
[St]
-1.0 -1.3 98 -7 -7 1012.1 1007.2
06 26.04 ЮВ 4-6
{7}
20 км 9/9 270 м
[St]
+0.3 -2.5 81 -5 -5 1009.8 1005.0
09 26.04 В 3-5
{6}
20 км 10/10 270 м
[St]
-1.3 -2.8 90 -6 -6 1008.9 1004.1 +0.9
12 26.04 В 3-5
{5}
20 км 10/10 180 м
[St]
-2.2 -2.6 97 -8 -8 1008.6 1003.8
18 26.04 ЮВ 3-4
{5}
20 км 10/10 150 м
[St]
-3.7 -3.8 99 -9 -9 1006.0 1001.2
21 26.04 В 2-3
{4}
20 км {снег} 10/10 120 м
[St]
-4.2 -4.2 100 -9 -9 1005.2 1000.4 -4.5 0.0 63
00 27.04 ЮВ 1-2
{4}
20 км {снег} 10/10 210 м
[St]
-2.1 -3.9 87 -4 -4 1004.1 999.3
03 27.04 ЮВ 1-2
{4}
20 км {снег} 10/10 210 м
[St]
-2.1 -3.9 87 -4 -4 1004.1 999.3
06 27.04 СВ 3-5
{5}
20 км 9/9 240 м
[St]
-2.1 -4.3 85 -7 -7 1002.4 997.6
09 27.04 СВ 4-6
{7}
20 км {снег} 10/10 210 м
[St]
-2.3 -3.7 90 -8 -8 1001.6 996.8 -0.5 0.0
12 27.04 С 2-4
{6}
20 км {снег} 8/8 360 м
[Sc]
-2.0 -3.4 90 -6 -6 1001.3 996.5
18 27.04 С 2-4
{6}
20 км 8/8 360 м
[Sc]
-2.9 -4.4 89 -7 -7 999.2 994.4
21 27.04 СЗ 4-5
{6}
20 км 9/9 300 м
[Sc]
-3.5 -4.8 91 -10 -10 999.1 994.3 -3.9 61
00 28.04 СЗ 3-4
{6}
20 км 9/9 330 м
[Sc]
-2.1 -4.7 82 -7 -6 999.3 994.5
06 28.04 СЗ 4-6
{7}
20 км 3/3 300 м
[Sc]
-0.2 -3.8 77 -6 -2 998.9 994.1
09 28.04 СЗ 3-5
{7}
20 км 10/10 210 м
[St]
-2.0 -3.5 89 -7 -7 999.7 994.9 -0.1
12 28.04 ЮЗ 1-2
{5}
20 км 10/10 180 м
[St]
-2.4 -3.6 91 -5 -5 1000.5 995.7
18 28.04 З 1-2
{4}
4000 м дымка 10/10 90 м
[St]
-3.4 -3.4 100 -6 -6 1001.0 996.2
21 28.04 Ю 2-3
{3}
20 км 10/10 120 м
[St]
-3.3 -3.4 99 -8 -8 1001.5 996.7 -3.7 59
00 29.04 ЮВ 2-4
{5}
20 км 5/5 300 м
[Sc]
-0.1 -3.4 78 -4 +2 1001.7 996.9
06 29.04 ЮВ 5-7
{7}
20 км 1/1 300 м
[Sc]
+1.3 -2.5 76 -4 -1 1002.8 998.1
09 29.04 В 4-6
{7}
20 км 10/10 210 м
[St]
-2.1 -2.7 96 -8 -8 1004.8 1000.0 +1.9
12 29.04 ЮВ 4-7
{8}
20 км 10/10 120 м
[St]
-2.9 -2.9 100 -9 -9 1006.9 1002.1
18 29.04 ЮВ 4-5
{7}
4000 м дымка 10/10 90 м
[St]
-2.9 -2.9 100 -9 -9 1008.5 1003.7
21 29.04 ЮВ 4-6
{7}
4000 м дымка 10/10 90 м
[St]
-2.8 -2.8 100 -9 -9 1009.5 1004.7 -3.2 57
00 30.04 ЮВ 4-6
{8}
4000 м дымка 10/10 120 м
[St]
-1.5 -2.0 96 -7 -7 1010.8 1005.9

 

Местоположение метеостанции Оха (Сахалинская область, Россия): широта 53.50 долгота 142.90 высота над уровнем моря 37 м.

В архиве по умолчанию представлена погода в Оха за последнюю неделю. Архивные данные за месяц целиком и за предыдущие месяцы, начиная с января 2011 года, Вы можете получить, выбрав интересующий диапазон дат из раскрывающегося списка и нажав кнопку "Ввод!".

Внимание! Время в таблицах - всемирное. Для получения местного времени необходимо прибавить поправку, которая в Оха равна 11 ч.

Смотрите также архив погоды в соседних городах и на ближайших метеорологических станциях:

Погода в Одопту (Сахалинская область, Россия) (23 км)
Погода в Москальво (Сахалинская область, Россия) (28 км)
Погода в Ныврово (Сахалинская область, Россия) (94 км)
Погода в Байдукове (Хабаровский край, Россия) (102 км)
Погода в Вал (Сахалинская область, Россия) (130 км)
Погода в Джаоре (Хабаровский край, Россия) (146 км)
Погода в Николаевск-на-Амуре (Хабаровский край, Россия) (151 км)
Погода в Погибях (Сахалинская область, Россия) (167 км)
Погода в Ногликах (Сахалинская область, Россия) (176 км)
Погода в Литке (Хабаровский край, Россия) (178 км)

Пояснения к столбцам:

Ветер - указаны скорость ветра в м/с - средняя за 10 мин, порывы в срок и между сроками (в фигурных скобках) и направление, откуда дует ветер: С - северный, СВ - северо-восточный, В - восточный, ЮВ - юго-восточный, Ю - южный, ЮЗ - юго-западный, З - западный, СЗ - северо-западный.
Видимость - горизонтальная дальность видимости в метрах или километрах. При видимости от 1 до 10 км при отсутствии осадков обычно наблюдается дымка, при ухудшении видимости до 1 км и менее - туман. В сухую погоду видимость может ухудшаться дымом, пылью или мглою.
Явления - указаны атмосферные явления, наблюдавшиеся в срок или в последний час перед сроком; фигурными скобками обозначены явления, наблюдавшиеся между сроками (за 1-3 часа до срока); квадратными скобками обозначены град или гололедные отложения с указанием их диаметра в мм.
Облачность - указаны через наклонную черту общая и нижняя облачность в баллах и высота нижней границы облаков в метрах; квадратными скобками обозначены формы облаков: Ci - перистые, Cs - перисто-слоистые, Cc - перисто-кучевые, Ac - высококучевые, As - высокослоистые, Sc - слоисто-кучевые, Ns - слоисто-дождевые, Cu - кучевые, Cb - кучево-дождевые. Подробнее классификацию облаков см. в Атласе облаков (PDF).
T - Температура воздуха - температура, измеренная на высоте 2 м над землей.
Td - Температура точки росы - температура, при понижении до которой содержащийся в воздухе водяной пар достигнет насыщения.
f - Относительная влажность воздуха - влажноcть воздуха, измеренная на высоте 2 м над землей.
Te - Эффективная температура - температура, которую ощущает одетый по сезону человек в тени. Характеристика душности погоды. При расчете учитывается влияние влажности воздуха и скорости ветра на теплоощущения человека.
Tes - Эффективная температура на солнце - температура, которую ощущает человек, с поправкой на солнечный нагрев. Характеристика знойности погоды. Зависит от высоты солнца над горизонтом, облачности и скорости ветра. Ночью, в пасмурную погоду, а также при ветре 12 м/с и более поправка равна нулю.
P - Атмосферное давление - приведенное к уровню моря атмосферное давление.
Po - Атмосферное давление - измеренное на уровне метеостанции атмосферное давление.
Tmin - Минимальная температура - минимум температуры воздуха на высоте 2 м над землей.
Tmax - Максимальная температура - максимум температуры воздуха на высоте 2 м над землей.
R - Количество осадков - Количество выпавших осадков за период времени, мм. При наведении курсора мыши на число - период времени, за который выпало указанное количество осадков.
R24 - Количество осадков - Количество выпавших осадков за 24 часа, мм.
S - Снежный покров - Высота снежного покрова, см. При наведении курсора мыши на число - состояние снежного покрова и степень покрытия местности в баллах.